Regional Weather Roundup
Issued by NWS

Home | Current Version | Previous Version | Text Only | Print | Product List | Glossary On
Versions: 1 2 3 4 5 6 7 8 9 10 11 12 13 14 15 16 17 18 19 20 21 22 23 24 25 26 27 28 29 30 31 32 33 34 35 36 37 38 39 40 41 42 43 44 45 46 47 48 49 50
000
ASUS43 KMPX 251001
RWRMN
WEATHER ROUNDUP FOR MINNESOTA
NATIONAL WEATHER SERVICE TWIN CITIES/CHANHASSEN MN
400 AM CST SAT NOV 25 2017


NOTE: "FAIR" INDICATES FEW OR NO CLOUDS BELOW 12,000 FEET WITH NO
SIGNIFICANT WEATHER AND/OR OBSTRUCTIONS TO VISIBILITY. N/A MEANS
CURRENT SKY AND/OR WEATHER CONDITIONS ARE NOT AVAILABLE.

MNZ060>063-068>070-251100-
   Twin Cities Metro

CITY           SKY/WX    TMP DP  RH WIND       PRES   REMARKS
TWIN CITIES    CLEAR     37  33  85 W10       29.86R
ST PAUL        CLEAR     37  30  75 W13       29.87R
CRYSTAL        CLEAR     35  28  75 W10       29.85R WCI  27
BLAINE         CLEAR     36  30  80 W15       29.84R
LAKEVILLE      CLEAR     34  30  86 W10       29.87R WCI  26
EDEN PRAIRIE   CLEAR     36  31  82 W9        29.87R
SOUTH ST PAUL  CLEAR     38  30  73 W9G17     29.85R
LAKE ELMO      FAIR      36  32  87 W9        29.85R
$$
MNZ001>005-007-008-013>017-022>024-027-028-251100-
   Northwest Minnesota

CITY           SKY/WX    TMP DP  RH WIND       PRES   REMARKS
BEMIDJI        CLEAR     22  15  73 NW13      29.88R WCI  10
HALLOCK        CLEAR     18  10  73 N9        30.00R WCI   6
ROSEAU         CLEAR     18  12  79 N10       29.95R WCI   6
WARROAD        FLURRIES  16  10  79 NW8       29.95R WCI   5
CROOKSTON      CLOUDY    21  16  79 N16       30.00R WCI   7
FOSSTON        CLEAR     19  10  68 NW13      29.95R WCI   7
DETROIT LAKES  CLOUDY    28  23  80 N13G20    29.93R WCI  18
MOORHEAD       MOCLDY    25  21  86 CALM      29.99R
PARK RAPIDS    CLEAR     26  19  74 NW13G25   29.88R WCI  15
MAHNOMEN       FAIR      23  18  82 N15       29.95R WCI  10
$$
MNZ006-009>011-018-025>026-251100-
   North Central Minnesota

CITY           SKY/WX    TMP DP  RH WIND       PRES   REMARKS
BAUDETTE       PTCLDY    15   8  73 NW14G26   29.90R WCI   0
FLAG ISLAND    CLEAR     12   5  73 NW18      29.93R WCI  -5
INTL FALLS     CLEAR     17   9  70 NW15      29.86R WCI   2
WASKISH        PTCLDY    19  14  79 NW12G17   29.90R WCI   7
BIG FORK       CLEAR     21  16  79 NW7       29.84R WCI  13
LONGVILLE      CLOUDY    28  21  74 NW7       29.85R WCI  21
GRAND RAPIDS   CLOUDY    26  18  71 NW17G25   29.84R WCI  13
CRANE LAKE     MOCLDY    19  10  68 NW8G21    29.83R WCI   9
ORR            CLEAR     19   9  63 NW9G20    29.79R WCI   9
COOK           PTCLDY    21  12  68 NW15      29.82R WCI   8
WALKER         FAIR      25  17  73 NW9G20    29.87R WCI  15
$$
MNZ012-019>021-037-251100-
   Northeast Minnesota

CITY           SKY/WX    TMP DP  RH WIND       PRES   REMARKS
DULUTH         PTCLDY    28  19  69 NW23G32   29.75R WCI  14
ELY            CLEAR     21  12  68 NW15      29.75R WCI   8
HIBBING        CLEAR     23  14  68 NW22G29   29.80R WCI   8
EVELETH        CLEAR     24  11  57 NW16G30   29.80R WCI  10
DULUTH HARBOR  CLEAR     34  23  64 W21       29.80R WCI  22
TWO HARBORS    CLEAR     32  19  59 NW7       29.73R WCI  26
SILVER BAY     CLEAR     28  18  64 W8G18     29.71R WCI  20
GRAND MARAIS     N/A     30  16  56 NW14G26   29.71R WCI  19
G MARAIS ARPRT CLOUDY    23  12  63 NW12G22   29.63R WCI  12
$$
MNZ029>031-032-039>041-046>048-054>057-064-251100-
   West Central Minnesota

CITY           SKY/WX    TMP DP  RH WIND       PRES   REMARKS
FERGUS FALLS   CLEAR     28  27  93 NW7       29.97R WCI  21
WHEATON        CLEAR     30  27  86 W8        29.98R WCI  23
MORRIS         CLEAR     32  28  86 NW9       29.93R WCI  24
ALEXANDRIA     CLEAR     31  28  89 NW10      29.91R WCI  22
ELBOW LAKE     FAIR      28  28  97 NW8       29.94R WCI  20
WADENA         CLEAR     27  23  86 NW15G21   29.89R WCI  15
GLENWOOD       CLEAR     28  28 100 W9        29.92R WCI  20
APPLETON       CLEAR     32  27  80 W5        29.95R WCI  27
BENSON         CLEAR     30  28  93 NW9       29.95R WCI  22
ORTONVILLE     CLEAR     34  27  75 W7        29.95R WCI  28
MADISON        CLEAR     34  28  80 W8        29.96R WCI  27
WILLMAR        FAIR      34  30  86 NW14      29.94R WCI  24
$$
MNZ033>034-036-042>043-049>051-058-059-251100-
   Central Minnesota

CITY           SKY/WX    TMP DP  RH WIND       PRES   REMARKS
ST CLOUD       CLEAR     33  28  81 NW9       29.86R WCI  25
SAUK CENTRE    FAIR      31  29  90 W9        29.90R WCI  23
PAYNESVILLE    CLEAR     32  31  96 W13       29.91R WCI  22
AITKIN         PTCLDY    28  21  74 NW12G20   29.83R WCI  18
PINE RIVER     CLEAR     27  19  74 NW7G18    29.89R WCI  19
BRAINERD       CLEAR     31  22  69 NW14      29.86R WCI  21
STAPLES        CLEAR     27  23  86 NW10      29.88R WCI  17
LONG PRAIRIE   FAIR      32  28  86 W14G20    29.89R WCI  22
LITTLE FALLS   CLEAR     32  23  69 NW12      29.87R WCI  23
LITCHFIELD     CLEAR     36  30  80 W9G16     29.90R
BUFFALO        CLEAR     33  29  86 W6        29.89R WCI  27
MAPLE LAKE     CLEAR     35  31  87 W7        29.88R WCI  29
HUTCHINSON     CLEAR     33  31  92 W12       29.91R WCI  25
$$
MNZ037-044-045-052-053-251100-
   East Central Minnesota

CITY           SKY/WX    TMP DP  RH WIND       PRES   REMARKS
PRINCETON      CLEAR     34  28  80 W7        29.85R WCI  28
MORA           CLEAR     34  27  75 NW12G20   29.83R WCI  25
CAMBRIDGE      CLEAR     36  27  69 W8        29.84R
RUSH CITY      CLEAR     32  27  83 W5        29.83R WCI  27
MOOSE LAKE     PTCLDY    32  23  69 NW12G17   29.79R WCI  23
HINCKLEY       FAIR      34  27  75 NW10G20   29.81R WCI  26
CLOQUET        CLOUDY    30  19  64 W16G25    29.78R WCI  19
MCGREGOR       CLEAR     30  19  64 NW16G28   29.83R WCI  19
$$
MNZ071>073-080-081-089-090-097-098-251100-
   Southwest Minnesota

CITY           SKY/WX    TMP DP  RH WIND       PRES   REMARKS
MONTEVIDEO     CLEAR     32  28  86 NW3       29.96R
GRANITE FALLS  CLEAR     31  28  89 W6        29.97R WCI  25
CANBY          CLEAR     37  31  80 NW8       29.98R
MARSHALL       CLEAR     34  28  79 W12       29.96R WCI  25
REDWOOD FALLS  CLEAR     34  28  79 W10       29.94R WCI  26
OLIVIA         CLEAR     34  30  86 NW10      29.92R WCI  26
PIPESTONE      CLEAR     27  25  93 W3        29.98R
WINDOM         CLEAR     32  19  59 W9        29.95S WCI  24
WORTHINGTON    CLEAR     31  28  89 W9        29.98R WCI  23
JACKSON        PTCLDY    36  30  80 W12       29.96R
SLAYTON        CLEAR     35  30  83 W9        29.97R WCI  27
$$
MNZ065>067-074>077-082>085-091>093-251100-
   South Central Minnesota

CITY           SKY/WX    TMP DP  RH WIND       PRES   REMARKS
MANKATO        CLEAR     38  31  76 W14       29.92R
NEW ULM        CLEAR     34  28  80 CALM      29.93R
ST JAMES       CLEAR     36  30  80 W10       29.95R
FAIRMONT       CLEAR     35  30  82 W13       29.95R WCI  26
GLENCOE        CLEAR     35  32  90 W8        29.89R WCI  28
FARIBAULT      CLEAR     36  32  87 W8        29.90R
OWATONNA       CLEAR     36  30  80 W10       29.89R
WASECA         CLEAR     34  32  93 W12       29.92R WCI  25
ALBERT LEA     CLEAR     36  30  80 W8        29.90R
$$
MNZ078>079-086>088-094>096-251100-
   Southeast Minnesota

CITY           SKY/WX    TMP DP  RH WIND       PRES   REMARKS
ROCHESTER      PTCLDY    35  32  88 W15       29.86R WCI  25
RED WING       CLEAR     37  30  75 NW10      29.84R
STANTON        CLEAR     37  32  83 W12       29.86R
DODGE CENTER   PTCLDY    36  30  80 W13       29.87R
WINONA         PTCLDY    37  32  81 NW9       29.83R
AUSTIN         PTCLDY    36  30  80 W10       29.88R
PRESTON        MOCLDY    36  31  84 NW14      29.85R
$$
ABBREVIATIONS USED IN REMARKS
   TC - TEMPERATURES IN CELSIUS
  WCI - WIND CHILL INDEX
   HX - HEAT INDEX
  VSB - VISIBILITY
$$



USA.gov is the U.S. government's official web portal to all federal, state and local government web resources and services.